[[{"header":{"parameterUnit":"m.s-1","parameterCategory":1,"la1":30.2991,"la2":30.254,"lo1":-89.0895,"lo2":-89.0444,"dy":0.0017,"dx":0.0017,"nx":28,"ny":28,"refTime":"2024-08-11T21:00:00:Z","depth":0,"parameterNumber":2,"parameterNumberName":"U-component_of_WINDS"},"data":[0,0,0,0,0,0,0,0,0,0,0,0,0,0,0,0,0,0,0,0,0,0,0,0,0,0,0,0,0,0,0,0,0,0,0,0,0,0,0,0,0,0,0,0,0,0,0,0,0,0,0,0,0,0,0,0,0,0,2.1139,2.1139,0,2.11,2.11,2.1099,2.0951,2.0948,2.0944,2.0941,2.0904,2.0906,2.0908,0,0,0,0,0,0,0,0,0,0,0,0,0,2.1089,2.1091,2.1139,2.1139,2.1138,2.11,2.11,2.1099,2.0952,2.0948,2.0944,2.094,2.0903,2.0906,2.0908,0,0,0,0,0,0,0,0,0,0,0,0,0,2.1087,2.1091,2.1139,2.106,2.1053,2.11,2.11,2.1099,2.0953,2.0948,2.0942,2.0938,2.0902,2.0906,2.0909,2.1031,0,0,2.0919,2.092,0,0,0,0,0,0,0,0,2.1087,2.1089,2.1072,2.1066,2.1057,2.1025,2.1068,2.1076,2.0954,2.0991,2.0941,2.0935,2.0949,2.0948,2.0952,2.1029,2.1027,2.0919,2.0921,2.0922,2.0923,0,0,0,0,0,0,0,2.1087,2.109,2.1124,2.1072,2.1063,2.1027,2.1022,2.1069,2.0999,2.0987,2.0976,2.0974,2.0944,2.0949,2.095,2.1027,2.0919,2.0922,2.0924,2.0925,2.1204,2.1209,0,0,0,0,0,0,2.1099,2.1091,2.1125,2.1123,2.106,2.1033,2.1026,2.1041,2.0998,2.0986,2.0978,2.0967,2.0946,2.0946,2.0948,2.1089,2.0922,2.0925,2.0927,2.1198,2.1205,2.1211,0,0,0,0,0,0,2.1098,2.1103,2.1127,2.1104,2.1104,2.1039,2.1057,2.1043,2.1048,2.0991,2.0978,2.0996,2.0942,2.0943,2.1011,2.1085,2.0927,2.093,2.1192,2.12,2.1208,2.1371,0,0,0,0,0,0,2.1097,2.1104,2.1149,2.1106,2.1106,2.119,2.1061,2.1046,2.1053,2.1039,2.1004,2.0994,2.0938,2.1007,2.1015,2.1087,2.0932,2.1185,2.1196,2.1205,2.1359,2.1384,2.1405,0,0,0,0,0,2.1096,2.1196,2.1152,2.1157,2.116,2.1195,2.1195,2.1128,2.106,2.1105,2.1069,2.0995,2.1076,2.1016,2.1022,2.1097,2.118,2.1193,2.1205,2.1349,2.1379,2.1405,0,0,0,0,0,0,2.125,2.1189,2.1139,2.1228,2.1218,2.117,2.1224,2.1162,2.1171,2.1157,2.1074,2.1067,2.1148,2.1129,2.1063,2.1213,2.1116,2.113,2.1223,2.1251,2.1274,2.1277,2.0935,0,0,0,0,0,2.1294,2.1326,2.1272,2.1356,2.1353,2.1291,2.1303,2.1252,2.1238,2.1233,2.1201,2.1192,2.1215,2.1232,2.125,2.1355,2.1347,2.141,2.1434,2.1453,2.1466,2.1522,2.155,2.1251,2.1251,2.1251,0,0,2.1386,2.1357,2.1382,2.1386,2.1372,2.1408,2.1288,2.1331,2.1357,2.124,2.1302,2.1279,2.1263,2.1351,2.1388,2.1337,2.1547,2.1469,2.1484,2.1487,2.1538,2.1566,2.1592,2.1259,2.1258,2.1257,0,0,2.1572,2.1553,2.1621,2.161,2.159,2.1548,2.1565,2.1526,2.1506,2.1567,2.1481,2.1512,2.1553,2.1545,2.1547,2.1732,2.1665,2.174,2.1862,2.1917,2.1941,2.1961,2.2029,2.2054,2.1754,2.1754,2.1755,0,2.1689,2.1739,2.1665,2.1714,2.1719,2.1614,2.1684,2.1676,2.1664,2.1671,2.1614,2.1665,2.1646,2.1732,2.1777,2.1781,2.1799,2.1744,2.1943,2.1963,2.1981,2.2045,2.207,2.1764,2.1763,2.1762,2.1761,0,2.1885,2.1921,2.1979,2.197,2.1981,2.204,2.1976,2.1997,2.1946,2.191,2.1975,2.1949,2.1961,2.1977,2.1927,2.2056,2.2026,2.1958,2.1858,2.202,2.2078,2.2102,2.1777,2.1774,2.1771,2.1769,0,0,2.2166,2.2115,2.2138,2.2133,2.2104,2.2131,2.2187,2.2197,2.2218,2.2213,2.2258,2.2297,2.2234,2.2236,2.2185,2.2233,2.2384,2.2159,2.2158,2.2203,2.2525,2.2577,2.2606,2.2339,2.2343,2.2346,2.2527,0,2.2344,2.2434,2.237,2.2472,2.2506,2.2407,2.2456,2.2444,2.2413,2.2438,2.2403,2.2432,2.2346,2.2347,2.2391,2.2356,2.2447,2.2342,2.2381,2.2384,2.2389,2.2636,2.2691,2.2863,2.2549,2.2553,2.2556,0,2.2563,2.2568,2.2674,2.264,2.2651,2.2696,2.2701,2.2726,2.2712,2.2685,2.2689,2.2625,2.2678,2.258,2.2653,2.2584,2.2596,2.2582,2.2587,2.2588,2.248,2.2646,2.2915,2.2942,2.259,2.2588,2.2585,0,2.2759,2.2792,2.286,2.2859,2.282,2.2854,2.284,2.282,2.2831,2.2837,2.2843,2.2855,2.2862,2.2874,2.2816,2.2749,2.2897,2.2794,2.2878,2.288,2.2914,2.2913,2.3191,2.2921,2.2921,2.292,2.292,0,2.2965,2.3034,2.2948,2.299,2.3065,2.299,2.3067,2.3042,2.3026,2.3062,2.2978,2.3014,2.2935,2.2964,2.2919,2.2987,2.2991,2.2972,2.2959,2.298,2.2983,2.2987,2.2974,2.2927,2.2926,2.2924,2.2923,0,2.3196,2.3141,2.3209,2.3167,2.3158,2.3216,2.318,2.3218,2.3181,2.3228,2.3235,2.3178,2.3207,2.315,2.3172,2.3142,2.3239,2.3207,2.3244,2.3235,2.3322,2.3315,2.3614,2.3649,2.3357,2.336,2.3362,0,2.3331,2.3382,2.3346,2.3364,2.3354,2.3384,2.3395,2.3325,2.334,2.3328,2.3368,2.3391,2.3404,2.3456,2.3417,2.3434,2.3403,2.3506,2.3405,2.3424,2.3406,2.3404,2.3409,2.3527,2.3531,2.3534,2.3536,0,2.3577,2.3548,2.3567,2.3578,2.3593,2.3598,2.3597,2.3617,2.3542,2.3564,2.3593,2.3604,2.3626,2.365,2.3658,2.3644,2.3579,2.3568,2.3589,2.3611,2.363,2.3622,2.3302,2.3562,2.3559,2.3557,2.3556,2.3555,2.3765,2.3806,2.3788,2.3812,2.3804,2.3805,2.3839,2.3807,2.3829,2.3842,2.3799,2.3838,2.3824,2.3827,2.3821,2.3851,2.3805,2.3835,2.3842,2.3851,2.3865,2.3625,2.3852,2.3851,2.3851,2.385,2.3849,0,2.4008,2.3991,2.4014,2.4016,2.4036,2.3972,2.3967,2.3989,2.4024,2.4016,2.4031,2.4066,2.4089,2.4052,2.4069,2.4101,2.4072,2.4108,2.4105,2.4103,2.3905,2.3886,2.4131,2.4131,2.4131,2.4131,2.4131,2.4131,2.4136,2.4203,2.4172,2.4234,2.4217,2.4254,2.4258,2.4259,2.4252,2.4294,2.4313,2.4288,2.4269,2.4285,2.4303,2.4292,2.4303,2.435,2.4329,2.4145,2.4117,2.4091,2.4072,2.4353,2.4353,2.4524,2.4526,2.4527]},{"header":{"parameterUnit":"m.s-1","parameterCategory":1,"la1":30.2991,"la2":30.254,"lo1":-89.0895,"lo2":-89.0444,"dy":0.0017,"dx":0.0017,"nx":28,"ny":28,"refTime":"2024-08-11T21:00:00:Z","depth":0,"parameterNumber":3,"parameterNumberName":"V-component_of_WINDS"},"data":[0,0,0,0,0,0,0,0,0,0,0,0,0,0,0,0,0,0,0,0,0,0,0,0,0,0,0,0,0,0,0,0,0,0,0,0,0,0,0,0,0,0,0,0,0,0,0,0,0,0,0,0,0,0,0,0,0,0,-1.8364,-1.8364,0,-1.8422,-1.8422,-1.8423,-1.8423,-1.8423,-1.8422,-1.8421,-1.848,-1.8482,-1.8484,0,0,0,0,0,0,0,0,0,0,0,0,0,-1.8252,-1.8254,-1.8363,-1.8364,-1.8365,-1.8422,-1.8422,-1.8423,-1.8424,-1.8423,-1.8422,-1.8421,-1.8479,-1.8481,-1.8484,0,0,0,0,0,0,0,0,0,0,0,0,0,-1.8304,-1.8255,-1.8363,-1.8372,-1.8373,-1.8421,-1.8422,-1.8423,-1.8424,-1.8423,-1.8421,-1.842,-1.8478,-1.8481,-1.8484,-1.8527,0,0,-1.8495,-1.8496,0,0,0,0,0,0,0,0,-1.8301,-1.8308,-1.837,-1.8371,-1.8373,-1.8414,-1.8404,-1.8458,-1.8424,-1.8405,-1.8421,-1.842,-1.8459,-1.8463,-1.8477,-1.853,-1.8533,-1.8495,-1.8497,-1.8499,-1.8499,0,0,0,0,0,0,0,-1.8298,-1.8306,-1.8386,-1.8371,-1.8373,-1.8373,-1.8379,-1.8415,-1.8437,-1.8406,-1.8406,-1.8413,-1.8459,-1.8474,-1.8478,-1.8533,-1.8495,-1.8498,-1.85,-1.8501,-1.8625,-1.8627,0,0,0,0,0,0,-1.8292,-1.8303,-1.8385,-1.8388,-1.8334,-1.8376,-1.8383,-1.8402,-1.8437,-1.8441,-1.8414,-1.8413,-1.8468,-1.8474,-1.848,-1.8533,-1.8499,-1.8502,-1.8504,-1.8624,-1.8626,-1.8627,0,0,0,0,0,0,-1.829,-1.83,-1.8382,-1.8346,-1.8356,-1.8379,-1.8401,-1.8404,-1.8418,-1.8443,-1.8447,-1.8425,-1.8468,-1.8475,-1.8516,-1.8535,-1.8503,-1.8506,-1.8623,-1.8625,-1.8626,-1.8638,0,0,0,0,0,0,-1.8287,-1.8299,-1.8316,-1.8346,-1.8358,-1.8417,-1.8402,-1.8406,-1.8424,-1.8423,-1.8454,-1.8458,-1.8467,-1.8511,-1.8519,-1.8539,-1.8509,-1.8621,-1.8623,-1.8626,-1.8636,-1.8641,-1.8644,0,0,0,0,0,-1.8283,-1.8316,-1.8316,-1.8326,-1.8379,-1.8418,-1.8425,-1.8436,-1.8426,-1.8442,-1.8458,-1.8457,-1.8532,-1.8515,-1.8524,-1.8545,-1.862,-1.8623,-1.8626,-1.8635,-1.864,-1.8644,0,0,0,0,0,0,-1.8287,-1.832,-1.8321,-1.8365,-1.8389,-1.8418,-1.844,-1.8441,-1.8468,-1.8466,-1.8478,-1.8485,-1.8525,-1.8539,-1.852,-1.8589,-1.8574,-1.8579,-1.8578,-1.8583,-1.8587,-1.8582,-1.8512,0,0,0,0,0,-1.8293,-1.8322,-1.835,-1.8386,-1.8398,-1.8417,-1.8434,-1.8441,-1.8466,-1.8476,-1.8494,-1.8518,-1.8547,-1.8566,-1.8594,-1.8639,-1.8645,-1.8658,-1.8662,-1.8665,-1.8669,-1.8693,-1.8699,-1.8636,-1.8636,-1.8636,0,0,-1.8306,-1.8328,-1.8345,-1.8388,-1.8407,-1.8436,-1.8425,-1.8457,-1.8479,-1.848,-1.852,-1.8534,-1.8562,-1.8605,-1.8624,-1.8618,-1.8688,-1.8668,-1.867,-1.8673,-1.8697,-1.8703,-1.8708,-1.8638,-1.8638,-1.8638,0,0,-1.8344,-1.8364,-1.8397,-1.8416,-1.8446,-1.8458,-1.8466,-1.8495,-1.8505,-1.8545,-1.8547,-1.8573,-1.8622,-1.8642,-1.8659,-1.8705,-1.8705,-1.8714,-1.8734,-1.8758,-1.8763,-1.8767,-1.8784,-1.879,-1.8718,-1.8718,-1.8718,0,-1.8356,-1.8401,-1.8413,-1.8445,-1.8464,-1.8467,-1.85,-1.8518,-1.8555,-1.8567,-1.856,-1.8622,-1.8641,-1.8689,-1.87,-1.8713,-1.8723,-1.871,-1.8761,-1.8766,-1.877,-1.8786,-1.8792,-1.8719,-1.8719,-1.8719,-1.8719,0,-1.8415,-1.8446,-1.8469,-1.8505,-1.8526,-1.8558,-1.8575,-1.8595,-1.8599,-1.8613,-1.8653,-1.8676,-1.8709,-1.8721,-1.8725,-1.8769,-1.8764,-1.8759,-1.8744,-1.8777,-1.8792,-1.8798,-1.872,-1.872,-1.872,-1.8719,0,0,-1.8457,-1.8499,-1.8508,-1.8524,-1.8557,-1.8581,-1.8614,-1.8646,-1.8663,-1.8689,-1.8716,-1.8758,-1.8754,-1.8773,-1.878,-1.8801,-1.8836,-1.8793,-1.8794,-1.88,-1.8886,-1.889,-1.8897,-1.8837,-1.8838,-1.8839,-1.8884,0,-1.8499,-1.8557,-1.8569,-1.8619,-1.8648,-1.8652,-1.868,-1.8703,-1.8716,-1.8743,-1.8757,-1.8787,-1.8779,-1.879,-1.8812,-1.8828,-1.8854,-1.8825,-1.8862,-1.8863,-1.8855,-1.8905,-1.8909,-1.895,-1.889,-1.8891,-1.8892,0,-1.8555,-1.8583,-1.8636,-1.8665,-1.8678,-1.8703,-1.8734,-1.8759,-1.8786,-1.8794,-1.8815,-1.882,-1.8854,-1.8839,-1.8885,-1.8865,-1.8881,-1.8892,-1.8894,-1.8897,-1.8879,-1.891,-1.8964,-1.897,-1.8901,-1.89,-1.89,0,-1.858,-1.8631,-1.8669,-1.8683,-1.8718,-1.8736,-1.8752,-1.8777,-1.8796,-1.8823,-1.8836,-1.8866,-1.8883,-1.8906,-1.8919,-1.8907,-1.8965,-1.895,-1.8973,-1.8972,-1.8985,-1.8984,-1.9042,-1.8995,-1.8995,-1.8995,-1.8995,0,-1.8626,-1.8658,-1.8681,-1.8705,-1.8741,-1.8754,-1.879,-1.8805,-1.8828,-1.8855,-1.886,-1.8884,-1.89,-1.8927,-1.8938,-1.8975,-1.8983,-1.899,-1.8992,-1.899,-1.8989,-1.9,-1.8997,-1.8997,-1.8996,-1.8996,-1.8996,0,-1.866,-1.8676,-1.8719,-1.8749,-1.8757,-1.8783,-1.8809,-1.8832,-1.8845,-1.8879,-1.8888,-1.8909,-1.8941,-1.8957,-1.8996,-1.9004,-1.9046,-1.9046,-1.9037,-1.9038,-1.9059,-1.9057,-1.9127,-1.9136,-1.9084,-1.9084,-1.9084,0,-1.8688,-1.8713,-1.8746,-1.8764,-1.878,-1.881,-1.8829,-1.8844,-1.8864,-1.8896,-1.8915,-1.8948,-1.8974,-1.9026,-1.9045,-1.9075,-1.9076,-1.9099,-1.9081,-1.9077,-1.9077,-1.9075,-1.9078,-1.9102,-1.9102,-1.9103,-1.9103,0,-1.8735,-1.8742,-1.877,-1.8802,-1.8825,-1.885,-1.8875,-1.889,-1.8908,-1.893,-1.8963,-1.8984,-1.9025,-1.9057,-1.9089,-1.9105,-1.9107,-1.9109,-1.9115,-1.9113,-1.9106,-1.911,-1.9045,-1.9107,-1.9106,-1.9106,-1.9106,-1.9106,-1.8767,-1.879,-1.8817,-1.8848,-1.8868,-1.8891,-1.8915,-1.8931,-1.896,-1.8994,-1.9001,-1.9036,-1.9062,-1.9106,-1.9123,-1.915,-1.9145,-1.9155,-1.9157,-1.916,-1.9161,-1.9102,-1.9156,-1.9156,-1.9156,-1.9156,-1.9156,0,-1.8815,-1.8832,-1.8861,-1.8896,-1.8921,-1.8921,-1.8948,-1.8969,-1.9,-1.9024,-1.9051,-1.9089,-1.9121,-1.9142,-1.9174,-1.9192,-1.9194,-1.92,-1.9199,-1.9203,-1.9163,-1.9154,-1.9198,-1.9198,-1.9198,-1.9198,-1.9198,-1.9198,-1.8842,-1.8881,-1.8891,-1.894,-1.8957,-1.8992,-1.9008,-1.9029,-1.9049,-1.9092,-1.9118,-1.9132,-1.9155,-1.9189,-1.9218,-1.9224,-1.9235,-1.9241,-1.9247,-1.921,-1.9205,-1.9201,-1.9193,-1.9244,-1.9244,-1.9284,-1.9284,-1.9284]}]]